Greenville, ME

7:32 AM EDT on April 25, 2017 (GMT -0400)
Greenville

Weather History for KGNR - April, 2013

Change the Weather History Date:

Saturday, April 20, 2013

  Actual Average (KMLT) Record (KMLT)
Temperature  
Mean Temperature 44 °F -  
Max Temperature 55 °F 53 °F 85 °F (1927)
Min Temperature 33 °F 30 °F 18 °F (1974)
Degree Days  
Heating Degree Days 20    
Moisture  
Dew Point 32 °F    
Average Humidity 70    
Maximum Humidity 100    
Minimum Humidity 37    
Precipitation  
Precipitation 0.37 in - - ()
Sea Level Pressure  
Sea Level Pressure 29.75 in    
Wind  
Wind Speed 7 mph (NW)    
Max Wind Speed 12 mph    
Max Gust Speed 21 mph    
Averages and records for this station are not official NWS values.
T = Trace of Precipitation, MM = Missing Value Source: NWS Daily Summary

Daily Weather History Graph

Daily Weather History Graph

Search for Another Location

Airport or City:

Trip Planner

Search our weather history database for the weather conditions in past years. The results will help you decide how hot, cold, wet, or windy it might be!

Date:

Astronomy

Apr. 20, 2013 Rise Set
Actual Time 5:43 AM EDT 7:31 PM EDT
Civil Twilight 5:12 AM EDT 8:02 PM EDT
Nautical Twilight 4:34 AM EDT 8:41 PM EDT
Astronomical Twilight 3:52 AM EDT 9:23 PM EDT
Moon 1:56 PM EDT (4/20) 2:47 AM EDT (4/20)
Length of Visible Light 14h 50m
Length of Day
13h 47m
Waxing Gibbous, 71% of the Moon is Illuminated
Apr 20
Waxing Gibbous
Apr 25
Full
May 2
Last Quarter
May 9
New
May 18
First Quarter

Hourly Weather History & Observations

Time (EDT) Temp. Windchill Dew Point Humidity Pressure Visibility Wind Dir Wind Speed Gust Speed Precip Events Conditions
12:56 AM 55.9 °F - 55.9 °F 100% 29.52 in - South 10.4 mph 20.7 mph N/A   Unknown
1:56 AM 52.0 °F - 51.1 °F 97% 29.57 in - Calm Calm - 0.06 in   Unknown
2:56 AM 48.0 °F - 46.0 °F 93% 29.57 in - NNW 5.8 mph - N/A   Unknown
3:56 AM 46.0 °F 43.1 °F 45.0 °F 96% 29.59 in - Variable 5.8 mph - N/A   Unknown
4:56 AM 43.0 °F 38.8 °F 42.1 °F 97% 29.59 in - NW 6.9 mph - 0.05 in   Unknown
5:56 AM 42.1 °F 37.1 °F 39.9 °F 92% 29.57 in - NNW 8.1 mph - 0.06 in   Unknown
6:56 AM 39.9 °F 34.5 °F 39.0 °F 97% 29.61 in - NW 8.1 mph 17.3 mph 0.10 in   Unknown
7:56 AM 37.9 °F 30.5 °F 37.0 °F 97% 29.61 in - NNW 11.5 mph 16.1 mph 0.06 in   Unknown
8:56 AM 37.9 °F 32.1 °F 36.0 °F 93% 29.64 in - NW 8.1 mph - 0.03 in   Unknown
9:56 AM 39.0 °F - 37.0 °F 93% 29.67 in - Calm Calm - 0.01 in   Unknown
10:56 AM 43.0 °F 41.3 °F 36.0 °F 76% 29.67 in - Variable 3.5 mph - N/A   Unknown
11:56 AM 46.0 °F 42.5 °F 30.9 °F 56% 29.68 in - Variable 6.9 mph - N/A   Unknown
12:56 PM 46.0 °F 43.9 °F 28.0 °F 50% 29.69 in - Variable 4.6 mph - N/A   Unknown
1:56 PM 46.9 °F - 25.0 °F 42% 29.71 in - West 8.1 mph - N/A   Unknown
2:56 PM 48.0 °F - 25.0 °F 41% 29.74 in - Variable 5.8 mph - N/A   Unknown
3:56 PM 46.9 °F - 24.1 °F 41% 29.76 in - Variable 6.9 mph - N/A   Unknown
4:56 PM 46.9 °F - 21.9 °F 37% 29.79 in - Variable 6.9 mph - N/A   Unknown
5:56 PM 45.0 °F 43.5 °F 24.1 °F 44% 29.84 in - Variable 3.5 mph - N/A   Unknown
6:56 PM 41.0 °F 36.4 °F 26.1 °F 55% 29.90 in - Variable 6.9 mph - N/A   Unknown
7:56 PM 37.9 °F 33.5 °F 25.0 °F 60% 29.96 in - Variable 5.8 mph - N/A   Unknown
8:56 PM 36.0 °F 30.3 °F 24.1 °F 62% 30.03 in - Variable 6.9 mph - N/A   Unknown
9:56 PM 35.1 °F 29.3 °F 19.9 °F 54% 30.05 in - Variable 6.9 mph - N/A   Unknown
10:56 PM 34.0 °F 28.0 °F 19.9 °F 56% 30.07 in - Variable 6.9 mph 17.3 mph N/A   Unknown
11:56 PM 33.1 °F 26.9 °F 19.9 °F 59% 30.10 in - Variable 6.9 mph - N/A   Unknown